TimeCDT,TemperatureF,Dew PointF,Humidity,Sea Level PressureIn,VisibilityMPH,Wind Direction,Wind SpeedMPH,Gust SpeedMPH,PrecipitationIn,Events,Conditions,WindDirDegrees,DateUTC
12:54 AM,37.9,24.1,57,30.01,9.0,WNW,12.7,18.4,0.00,Snow,Light Snow,300,2012-10-10 05:54:00
1:54 AM,36.0,23.0,59,30.01,9.0,WNW,9.2,-,0.00,Snow,Light Snow,300,2012-10-10 06:54:00
2:54 AM,34.0,23.0,64,30.03,10.0,WNW,9.2,-,0.00,,Clear,290,2012-10-10 07:54:00
3:54 AM,33.1,23.0,66,30.03,10.0,WNW,9.2,-,N/A,,Clear,290,2012-10-10 08:54:00
4:54 AM,32.0,21.9,66,30.05,10.0,WNW,9.2,-,N/A,,Clear,290,2012-10-10 09:54:00
5:54 AM,32.0,23.0,69,30.07,10.0,West,8.1,-,N/A,,Mostly Cloudy,270,2012-10-10 10:54:00
6:54 AM,33.1,23.0,66,30.09,10.0,West,6.9,-,N/A,,Overcast,280,2012-10-10 11:54:00
7:54 AM,33.1,23.0,66,30.11,10.0,West,6.9,-,N/A,,Clear,260,2012-10-10 12:54:00
8:54 AM,37.0,25.0,62,30.14,9.0,West,6.9,-,0.00,,Clear,280,2012-10-10 13:54:00
9:54 AM,42.1,27.0,55,30.14,10.0,WNW,10.4,16.1,0.00,,Clear,290,2012-10-10 14:54:00
10:54 AM,46.0,26.1,46,30.14,10.0,NW,10.4,-,N/A,,Clear,310,2012-10-10 15:54:00
11:54 AM,46.9,21.0,36,30.15,10.0,WNW,12.7,20.7,N/A,,Clear,300,2012-10-10 16:54:00
12:54 PM,48.9,21.9,35,30.14,10.0,West,11.5,19.6,N/A,,Clear,280,2012-10-10 17:54:00
1:54 PM,51.1,21.9,32,30.13,10.0,West,9.2,23.0,N/A,,Partly Cloudy,280,2012-10-10 18:54:00
2:54 PM,51.1,23.0,33,30.12,10.0,West,12.7,19.6,N/A,,Scattered Clouds,260,2012-10-10 19:54:00
3:54 PM,54.0,21.9,29,30.09,10.0,West,10.4,21.9,N/A,,Scattered Clouds,270,2012-10-10 20:54:00
4:54 PM,53.1,21.9,30,30.08,10.0,West,4.6,-,N/A,,Scattered Clouds,260,2012-10-10 21:54:00
5:54 PM,51.1,24.1,35,30.08,10.0,WSW,5.8,-,N/A,,Clear,240,2012-10-10 22:54:00
6:54 PM,48.0,26.1,42,30.06,10.0,South,6.9,-,N/A,,Overcast,190,2012-10-10 23:54:00
7:54 PM,48.0,26.1,42,30.06,10.0,South,9.2,-,N/A,,Overcast,190,2012-10-11 00:54:00
8:54 PM,48.0,27.0,44,30.04,8.0,South,11.5,-,N/A,,Mostly Cloudy,190,2012-10-11 01:54:00
9:54 PM,48.0,27.0,44,30.01,10.0,South,13.8,-,N/A,,Mostly Cloudy,180,2012-10-11 02:54:00
10:54 PM,48.0,26.1,42,29.99,10.0,South,16.1,-,N/A,,Overcast,190,2012-10-11 03:54:00
11:54 PM,46.9,24.1,41,29.97,10.0,South,17.3,-,N/A,,Partly Cloudy,190,2012-10-11 04:54:00